Wetbulb
64.72 64.06 63.91 66.62 66.48 67.88 68.27 68.37 67.77 68.53 68.85 68.70 69.24 69.52 69.74 69.90 69.27 69.13 69.08 68.70 67.71 67.49 68.58 70.01 71.68 72.90 72.85 72.43 72.31 72.09 71.30 70.86 70.81
63.23 63.93 64.50 66.13 67.35 67.28 67.51 67.85 67.82 68.26 68.41 69.31 69.61 69.85 70.21 70.03 69.96 69.68 69.33 68.89 68.56 67.82 67.95 70.62 70.91 71.90 72.93 72.74 72.87 72.49 72.09 71.57 71.22
62.80 63.86 64.93 66.46 67.18 67.01 67.08 68.10 68.57 68.57 69.02 69.30 70.02 70.40 70.48 70.61 70.49 70.52 70.27 68.88 67.81 67.55 67.47 69.73 71.16 71.67 72.50 72.81 72.75 72.93 72.20 71.78 71.64
62.80 63.96 65.16 65.63 66.39 67.80 67.76 68.04 68.93 68.77 68.73 68.88 69.64 70.46 70.70 70.72 70.71 70.74 70.78 69.96 69.53 69.81 68.68 68.63 70.37 71.07 72.18 73.04 72.76 72.91 72.31 71.90 72.11
63.60 64.93 66.04 66.54 65.92 67.47 67.61 67.49 68.43 69.05 69.08 68.84 69.41 70.68 70.71 70.73 70.85 71.37 71.59 70.87 69.79 69.80 69.96 69.44 69.34 71.20 71.68 72.71 73.31 73.05 72.36 71.69 72.29
62.26 64.92 65.91 66.56 66.45 67.01 67.23 67.68 67.85 69.02 69.67 69.55 69.73 70.07 70.58 70.84 70.45 70.08 70.29 72.44 72.52 70.36 69.31 69.13 70.51 70.00 71.70 72.00 72.74 72.87 72.73 72.68 71.99
59.60 63.81 65.42 66.16 66.25 66.57 67.28 67.71 67.76 68.64 69.66 70.41 70.29 70.23 70.18 70.44 71.01 71.12 70.81 70.34 71.41 72.54 71.53 70.28 70.26 71.37 71.56 72.12 72.75 73.02 73.17 72.93 72.31
54.16 58.13 64.23 65.43 66.04 66.46 66.93 67.23 67.58 68.75 69.49 70.48 70.61 70.12 70.30 70.35 71.58 72.12 72.18 71.74 70.90 71.21 72.44 72.33 71.36 71.19 71.87 72.91 73.16 73.45 73.17 73.27 72.85
52.81 58.58 63.97 65.32 65.97 66.93 66.77 67.19 67.54 68.37 69.27 69.88 70.89 70.40 70.17 70.97 71.18 71.96 72.30 72.45 72.38 71.43 70.92 72.24 72.30 70.80 71.04 72.18 73.54 69.26 68.32 72.19 73.12
55.70 61.03 63.96 64.97 65.82 66.99 67.44 67.71 68.14 67.76 69.05 70.19 70.84 70.80 71.11 71.28 71.68 71.46 72.15 72.99 72.98 72.58 71.79 71.53 71.45 72.07 71.79 70.97 72.35 66.10 66.57 68.69 73.70
60.08 60.59 62.45 65.04 66.60 67.77 68.25 68.66 68.62 68.42 69.32 69.68 70.30 71.04 71.42 72.14 72.33 72.25 72.43 72.52 72.96 73.19 73.33 72.46 72.01 71.39 71.64 72.13 72.36 65.35 64.32 66.75 72.87
60.07 61.34 63.01 62.80 64.15 65.89 66.84 68.35 68.55 68.16 68.23 68.77 69.68 70.17 71.24 71.99 72.69 72.26 72.72 72.67 72.74 73.36 73.59 73.58 73.32 73.37 72.13 71.84 72.55 63.08 62.89 65.03 71.89
58.68 62.07 63.38 63.71 65.48 64.01 65.69 65.87 68.77 67.95 67.68 67.88 68.07 69.50 71.18 72.21 72.78 72.96 72.75 73.49 73.57 73.69 74.02 73.74 74.24 74.26 74.46 70.94 73.00 64.18 60.89 63.64 72.18
56.44 58.66 61.66 64.91 68.13 66.61 65.71 62.76 68.71 68.10 68.22 67.92 68.88 69.18 69.77 70.71 73.02 73.11 73.77 73.88 74.13 74.22 73.84 74.24 73.99 73.99 74.59 74.94 73.61 73.22 60.29 59.44 72.16
51.98 52.79 58.89 61.84 66.32 68.70 68.47 63.38 65.47 64.22 66.03 65.74 69.61 69.85 69.39 69.38 70.44 72.20 73.54 73.51 73.81 73.99 73.82 73.58 73.43 73.47 73.65 74.47 74.89 66.10 60.68 59.01 60.88
50.18 51.87 54.07 59.71 61.54 66.12 68.74 70.73 70.93 70.67 69.99 70.23 68.63 68.73 69.37 70.44 71.27 71.71 71.93 72.60 72.68 72.85 73.15 72.95 72.83 73.00 72.73 73.19 74.03 74.30 61.25 58.71 58.83
49.04 50.52 53.01 56.88 59.69 60.68 63.32 68.03 69.08 69.51 70.33 70.84 71.31 71.14 69.96 69.41 69.75 70.52 71.32 72.10 72.40 72.32 72.40 72.58 72.58 72.48 72.60 73.08 73.01 74.08 74.09 67.28 64.63
48.55 49.45 53.54 55.36 58.12 59.05 60.25 64.52 67.33 67.96 69.01 69.14 68.83 69.44 69.98 70.61 70.93 68.72 69.58 64.79 64.09 71.03 72.15 69.65 72.97 73.27 73.46 73.10 72.66 73.58 68.57 69.76 72.84
48.55 48.46 53.44 57.04 58.40 58.35 58.59 60.08 65.14 67.08 67.38 67.80 66.90 66.55 67.62 67.08 68.43 70.62 68.75 62.50 57.68 48.65 47.07 45.39 46.75 52.18 66.21 65.53 55.99 55.08 53.45 52.00 52.73
49.90 50.18 52.72 55.36 56.70 57.17 56.95 57.88 59.57 65.52 67.31 66.91 65.95 64.96 66.12 66.50 64.68 69.02 67.37 64.04 63.03 60.46 54.32 47.11 44.03 43.48 49.10 52.73 53.27 46.20 45.29 45.29 46.56
MSLP
1001.00 1002.16 1003.02 1003.19 1003.92 1004.67 1005.49 1006.40 1007.35 1008.32 1009.49 1010.44 1011.13 1011.94 1012.43 1013.10 1013.71 1014.28 1014.76 1015.22 1015.90 1016.42 1016.70 1016.83 1016.76 1017.16 1017.52 1017.82 1018.06 1018.32 1018.78 1019.31 1019.64
1000.68 1001.06 1001.84 1002.10 1002.76 1003.51 1004.28 1005.25 1006.13 1007.05 1008.31 1009.35 1010.26 1010.91 1011.74 1012.44 1013.04 1013.62 1014.16 1014.62 1015.15 1015.70 1016.09 1016.32 1016.48 1016.64 1017.23 1017.40 1017.60 1017.95 1018.34 1018.95 1019.29
999.46 999.93 1000.82 1001.14 1001.78 1002.40 1003.05 1003.84 1004.83 1006.13 1007.13 1008.02 1009.01 1010.00 1010.82 1011.56 1012.10 1012.76 1013.39 1014.00 1014.56 1015.05 1015.46 1015.86 1016.16 1016.48 1016.86 1017.19 1017.26 1017.48 1018.04 1018.48 1018.78
998.01 998.52 999.24 999.61 1000.39 1001.11 1002.08 1003.37 1004.41 1005.17 1006.49 1007.42 1008.42 1009.21 1009.92 1010.73 1011.49 1012.20 1012.72 1013.24 1013.86 1014.38 1014.89 1015.32 1015.76 1016.09 1016.45 1016.76 1016.90 1017.17 1017.65 1018.01 1018.37
996.70 996.96 997.50 998.18 999.43 1000.21 1001.28 1002.42 1003.74 1004.60 1005.54 1006.64 1007.23 1007.93 1008.88 1009.88 1010.68 1011.34 1012.06 1012.57 1013.07 1013.64 1014.18 1014.74 1015.15 1015.56 1015.92 1016.13 1016.36 1016.73 1017.14 1017.50 1017.81
996.15 996.42 996.68 997.14 998.46 999.46 1000.20 1001.22 1002.63 1003.63 1004.65 1005.46 1006.28 1007.26 1008.34 1009.27 1009.94 1010.58 1011.22 1011.80 1012.42 1012.96 1013.48 1014.08 1014.51 1014.99 1015.26 1015.52 1015.86 1016.20 1016.45 1016.73 1017.01
995.47 995.68 995.81 996.38 997.19 998.04 999.06 1000.12 1001.42 1002.65 1003.74 1004.62 1005.57 1006.52 1007.52 1008.28 1008.96 1009.58 1010.28 1010.94 1011.60 1012.18 1012.68 1013.33 1013.76 1014.13 1014.50 1014.85 1015.14 1015.41 1015.72 1016.06 1016.31
994.80 994.16 994.36 995.34 995.82 996.90 997.92 999.37 1000.68 1001.95 1002.86 1003.80 1004.75 1005.75 1006.59 1007.22 1008.01 1008.77 1009.51 1010.13 1010.65 1011.15 1011.74 1012.21 1012.64 1013.22 1013.54 1013.90 1014.33 1014.65 1015.03 1015.36 1015.61
993.47 992.58 993.13 994.00 994.84 995.94 997.20 998.29 999.53 1000.71 1001.83 1002.82 1003.91 1004.87 1005.54 1006.32 1007.16 1007.95 1008.55 1009.16 1009.79 1010.38 1010.80 1011.32 1011.83 1012.12 1012.52 1013.04 1013.30 1013.60 1013.96 1014.34 1014.70
994.05 992.92 992.80 993.65 994.22 995.14 996.21 997.30 998.34 999.48 1000.50 1001.94 1003.08 1003.99 1004.88 1005.72 1006.52 1007.20 1007.71 1008.30 1009.08 1009.63 1010.00 1010.48 1010.84 1011.24 1011.62 1011.93 1012.29 1012.56 1012.89 1013.29 1013.64
995.78 994.72 994.06 993.61 993.95 994.75 995.68 996.70 997.85 999.01 1000.53 1001.30 1002.37 1003.40 1004.21 1005.04 1005.78 1006.44 1007.08 1007.71 1008.18 1008.69 1009.20 1009.56 1009.87 1010.24 1010.60 1011.04 1011.23 1011.61 1011.90 1012.36 1012.85
997.60 996.50 995.58 995.00 994.53 994.96 995.94 996.67 997.62 998.92 1000.07 1000.92 1001.91 1002.56 1003.22 1004.02 1004.79 1005.45 1006.24 1006.77 1007.10 1007.54 1008.11 1008.52 1008.77 1009.00 1009.44 1009.89 1010.21 1010.50 1010.90 1011.64 1011.97
998.92 997.53 996.72 996.33 996.00 995.82 996.33 997.04 997.55 998.66 999.60 1000.39 1001.01 1001.44 1002.12 1003.20 1003.93 1004.54 1005.13 1005.58 1006.02 1006.32 1007.04 1007.36 1007.75 1008.09 1008.34 1008.65 1009.02 1009.49 1010.00 1010.68 1010.96
1000.21 999.22 998.18 997.45 997.27 997.22 997.25 997.39 997.44 998.45 999.36 999.66 999.76 1001.10 1001.91 1002.52 1002.96 1003.39 1004.18 1004.83 1005.39 1005.76 1006.16 1006.60 1006.96 1007.19 1007.37 1007.65 1008.05 1008.47 1008.99 1009.56 1009.89
1001.68 1000.73 999.39 998.85 998.80 998.73 998.50 998.12 998.26 999.08 999.68 999.94 1000.11 1000.68 1001.31 1001.83 1002.33 1003.03 1003.63 1004.00 1004.47 1004.98 1005.50 1005.85 1006.10 1006.42 1006.63 1006.68 1006.94 1007.37 1007.92 1008.44 1008.71
1003.38 1002.28 1001.17 1000.38 1000.15 999.89 999.58 999.35 999.24 999.72 1000.35 1000.25 1000.29 1000.78 1001.14 1001.44 1001.85 1002.19 1002.62 1003.19 1003.77 1004.42 1004.79 1005.04 1005.37 1005.63 1005.72 1005.87 1006.20 1006.45 1006.81 1007.20 1007.56
1004.57 1003.72 1002.94 1001.92 1001.42 1001.22 1001.04 1000.60 1000.36 1000.38 1000.48 1000.51 1000.62 1000.96 1001.18 1001.45 1001.78 1002.07 1002.36 1002.90 1003.52 1003.98 1004.23 1004.45 1004.66 1004.81 1004.89 1005.21 1005.51 1005.75 1006.11 1006.82 1007.18
1005.38 1004.94 1004.22 1003.26 1003.07 1002.87 1002.63 1002.05 1001.55 1001.33 1001.27 1001.20 1001.38 1001.41 1001.40 1001.43 1001.54 1001.95 1002.51 1003.19 1003.84 1003.80 1003.41 1003.70 1003.87 1003.73 1004.10 1004.66 1004.96 1004.88 1005.03 1005.49 1006.08
1005.78 1005.53 1005.02 1003.97 1003.70 1003.25 1002.94 1002.60 1002.15 1001.90 1001.64 1001.56 1001.70 1001.89 1001.77 1001.73 1001.72 1001.86 1002.35 1003.29 1004.22 1004.40 1004.25 1003.92 1003.66 1003.46 1003.37 1004.14 1004.29 1004.39 1004.75 1005.10 1005.36
1006.02 1005.82 1005.31 1004.66 1004.67 1004.40 1004.02 1003.52 1002.88 1002.56 1002.14 1002.15 1002.19 1002.23 1002.02 1001.76 1001.58 1001.70 1002.17 1002.83 1003.38 1004.10 1004.54 1004.26 1004.04 1003.79 1003.58 1003.64 1003.88 1004.68 1004.97 1005.28 1005.58
Wind_Speed
25 21 15 21 22 24 23 23 22 22 21 20 19 18 18 15 14 9 8 9 6 6 6 7 8 9 7 7 6 6 6 3 4
21 22 19 25 22 22 22 22 24 24 23 22 21 21 17 15 13 13 11 10 10 7 6 6 7 9 9 7 7 7 7 5 5
19 23 22 20 21 22 20 23 23 23 23 25 22 20 17 15 16 14 11 7 9 9 7 7 7 7 8 7 7 8 8 6 5
21 24 26 22 18 20 21 17 20 22 21 22 19 18 18 17 14 13 12 10 10 10 7 9 7 7 8 8 10 9 8 7 7
21 25 26 24 21 20 20 19 19 20 20 19 20 20 18 17 14 14 14 13 11 10 10 7 8 8 9 10 11 10 10 10 9
15 19 22 24 20 19 20 20 18 20 19 20 20 18 17 15 15 14 14 15 13 11 10 9 9 9 11 10 10 10 11 12 12
15 19 23 22 20 20 20 20 18 19 19 19 18 17 17 17 17 16 15 14 14 13 13 12 11 12 12 11 11 12 11 12 12
20 25 26 23 22 20 20 19 18 18 18 18 18 18 17 18 16 15 15 15 14 14 14 14 14 13 12 12 11 10 12 11 12
15 20 25 25 24 22 21 21 21 18 18 18 19 18 18 17 16 16 16 15 14 14 14 14 14 15 14 13 11 14 18 16 13
9 18 21 23 24 23 22 21 21 20 20 17 18 17 16 16 15 15 16 14 13 14 15 13 15 14 14 15 15 17 20 21 14
13 9 5 20 19 19 20 17 17 13 14 16 16 16 15 15 15 15 14 14 15 14 13 14 14 14 14 14 13 16 19 20 18
14 10 9 6 3 8 9 14 13 14 13 14 14 16 17 16 16 16 14 15 16 14 13 13 14 14 15 15 14 17 19 16 15
17 16 13 11 7 6 10 7 14 15 14 14 15 17 17 15 15 16 16 16 16 14 13 14 11 13 14 16 15 15 18 17 11
15 13 15 13 11 9 6 4 12 15 14 17 13 8 10 12 17 17 15 14 12 12 12 12 12 13 12 14 14 14 18 20 14
16 17 18 17 13 11 8 7 10 8 7 2 6 9 10 11 12 10 10 14 12 12 11 12 12 11 10 9 11 14 16 21 23
12 13 13 13 12 12 12 9 9 12 4 5 6 6 4 4 7 11 12 13 13 9 11 10 10 9 10 8 7 8 15 21 22
9 10 12 11 12 14 13 10 8 7 7 6 7 7 5 3 5 6 6 5 7 9 9 10 10 9 10 7 6 7 6 8 10
7 7 8 8 9 8 10 8 7 6 6 6 6 5 5 5 1 3 4 3 0 4 5 7 9 10 8 7 7 9 11 10 8
5 7 7 9 9 10 10 10 8 6 6 6 6 6 4 3 2 1 4 5 3 7 4 6 6 7 7 3 2 6 10 9 8
4 4 6 7 7 6 5 6 7 7 7 6 4 3 4 3 3 1 4 4 5 5 2 7 11 8 5 6 10 8 9 9 8
Wind_Direction
198 196 208 211 199 199 197 193 187 185 188 196 192 192 197 197 193 191 193 189 183 196 196 204 197 200 200 202 185 194 176 182 191
207 203 197 215 204 197 194 190 188 187 187 194 193 193 195 196 195 195 196 188 189 195 187 196 192 196 202 196 191 186 184 190 203
207 208 205 206 203 199 193 193 189 188 189 190 191 191 193 196 198 199 195 174 181 187 194 201 188 191 196 189 198 191 186 196 199
207 204 205 203 202 201 199 189 189 191 191 191 190 190 191 194 198 197 196 187 193 196 182 193 195 189 191 189 199 201 194 200 196
210 206 203 203 200 195 194 191 187 191 190 191 191 192 190 196 193 193 197 204 195 192 194 182 190 187 193 204 206 200 201 206 201
211 211 208 207 194 189 193 192 184 188 189 193 193 187 190 192 195 192 195 201 199 195 192 187 199 191 204 208 206 201 204 208 210
211 207 210 205 191 187 188 189 185 186 191 192 190 186 189 193 196 197 199 199 201 199 200 197 203 206 213 206 204 208 208 208 213
222 215 202 197 190 188 185 184 185 186 190 187 187 188 191 197 196 198 200 201 200 204 202 206 210 208 209 206 203 205 206 210 214
238 203 191 189 189 187 183 182 188 183 186 187 185 189 196 196 195 196 200 202 201 201 206 206 210 216 213 209 212 205 201 202 212
248 197 185 188 186 186 186 187 184 185 186 178 186 189 196 196 196 199 202 201 199 203 206 206 213 215 216 215 215 204 203 206 215
14 12 191 191 186 186 191 183 187 168 172 182 182 188 193 193 195 199 199 199 204 203 203 207 212 217 217 218 220 201 206 205 218
9 22 36 27 118 153 161 167 162 167 172 176 178 190 193 192 195 197 194 200 205 204 203 208 213 215 215 216 222 205 204 197 219
359 16 25 27 27 96 124 147 155 162 170 172 191 195 193 190 193 198 198 200 205 205 205 215 213 220 218 217 222 205 200 197 217
5 11 22 23 41 62 63 113 166 174 176 194 200 178 176 181 195 201 198 201 204 205 206 211 214 221 221 220 213 217 198 198 216
6 6 19 25 37 40 38 49 114 108 125 134 162 164 176 187 196 193 198 199 199 203 202 211 217 218 224 222 218 206 201 201 211
355 1 11 21 31 37 34 40 72 82 48 76 93 132 169 176 194 198 198 198 203 199 201 209 214 218 225 223 209 208 201 202 212
5 0 3 11 26 33 29 21 35 63 59 58 68 69 75 135 186 195 199 192 198 200 203 209 215 215 223 216 204 204 195 209 219
0 356 357 19 27 27 17 5 28 35 40 59 58 52 33 28 29 186 166 100 288 216 208 212 207 215 204 197 209 211 203 202 206
348 360 347 20 12 16 7 1 3 11 24 36 37 28 17 3 358 192 155 160 141 49 19 350 299 263 198 166 96 154 186 192 202
323 6 10 18 355 349 0 354 354 353 8 18 15 358 328 313 313 246 165 166 175 175 45 78 55 41 131 160 163 157 152 143 122